www.pogodaiklimat.ru

Погода и климат >> Архив погоды >> Китай >> Chenzhou


ПОГОДА в Chenzhou

  • Прогноз погоды в Chenzhou
  • Монитор погоды в Chenzhou
  • Климат города

АРХИВ ПОГОДЫ в Chenzhou

Время (UTC), дата Ветер
(напр.,м/с)
 
Видим.   Явления Облачность Т
(С)
Тd
(С)
f
(%)
Тe
(С)
Тes
(С)
Комфортность P
(гПа)
Po
(гПа)
Тmin
(С)
Tmax
(С)
R
(мм)
R24
(мм)
S
(см)
18 12.11 С 2 400 м туман ?/? +11.3 +11.1 99 +10 +10 1020.7 976.5 +12.0 0.3
21 12.11 С 1 500 м туман ?/? +11.3 +11.1 99 +11 +11 1019.5 1020.0
00 13.11 С 2 600 м слабый дождь 10/10 200 м
[]
+11.4 +11.2 99 +10 +10 1020.0 975.8 0.6
03 13.11 З 2 700 м слабый дождь {туман} 10/10 200 м
[]
+12.1 +11.9 99 +11 +11 1020.2 959.8
06 13.11 С 2 4800 м дымка {дождь, туман} 10/10 1500 м
[]
+12.5 +12.3 99 +11 +11 1016.9 972.9 +11.1
09 13.11 С 2 700 м слабый дождь 10/10 300 м
[]
+12.6 +12.4 99 +12 +12 1016.4 1016.0
12 13.11 С 1 800 м слабый дождь {туман} 10/10 300 м
[]
+12.8 +12.6 99 +13 +13 1017.6 973.6 0.0
15 13.11 С 3 600 м туман ?/? +12.7 +12.5 99 +11 +11 1018.6 959.6
18 13.11 С 3 500 м туман ?/? +12.5 +12.3 99 +11 +11 1018.1 974.1 +13.1 0.1
21 13.11 СВ 1 500 м туман ?/? +12.7 +12.5 99 +13 +13 1016.5 1017.0
00 14.11 С 2 600 м слабый дождь 10/10 300 м
[]
+12.8 +12.6 99 +12 +12 1018.6 974.6 0.4
03 14.11 С 2 28 км {дождь, туман} 10/10 1500 м
[]
+14.5 +14.3 99 +14 +14 1018.4 958.4
06 14.11 СВ 4 30 км {дождь, туман} ясно +19.0 +15.7 81 +20 +26 1014.4 971.1 +12.5 0.5
09 14.11 С 2 30 км ясно +18.3 +16.1 87 +19 +20 1015.0 1015.0
12 14.11 С 4 30 км 5/5
[]
+15.4 +15.1 98 +14 +14 1016.8 973.1
15 14.11 С 3 500 м туман ?/? +14.5 +14.3 99 +13 +13 1018.4 959.4
18 14.11 С 4 800 м в посл. час туман ?/? +14.1 +13.9 99 +13 +13 1017.4 974.1 +20.0 0.8
21 14.11 С 3 500 м туман ?/? +13.7 +13.5 99 +12 +12 1016.8 1017.0
00 15.11 С 4 700 м в посл. час туман 10/10 300 м
[]
+13.3 +13.1 99 +11 +11 1019.4 975.6 5
03 15.11 С 3 3500 м дымка 10/10 300 м
[]
+13.5 +13.3 99 +12 +12 1019.8 1020.0
06 15.11 С 6 2100 м дымка 10/10 300 м
[]
+13.1 +12.9 99 +11 +11 1018.5 1034.1 +13.0 7
09 15.11 С 4 2100 м дымка 10/10 300 м
[]
+12.8 +12.6 99 +11 +11 1018.7 1019.0
12 15.11 С 4 3000 м дымка 10/10 300 м
[]
+12.6 +12.4 99 +11 +11 1020.0 976.0 4
15 15.11 С 4 700 м дымка ?/? +12.2 +12.0 99 +10 +10 1021.3 961.8
18 15.11 С 4 1100 м дымка ?/? +11.8 +11.6 99 +9 +9 1020.6 976.5 +14.1 17
21 15.11 С 3 1000 м дымка ?/? +11.5 +11.3 99 +10 +10 1019.8 1020.0
00 16.11 С 4 1000 м дымка 10/10 300 м
[]
+11.5 +11.3 99 +9 +9 1022.2 978.0 26
03 16.11 С 3 1400 м дымка 10/10 300 м
[]
+12.2 +12.0 99 +10 +10 1022.9 962.5
06 16.11 С 4 1100 м дымка 10/10 300 м
[]
+11.9 +11.8 99 +10 +10 1020.0 975.8 +11.4 0.7
09 16.11 С 2 1500 м дымка 10/10 300 м
[]
+12.1 +11.9 99 +11 +11 1019.5 1020.0
12 16.11 С 2 800 м дымка 10/10 300 м
[]
+12.0 +11.8 99 +11 +11 1020.8 976.6 5
15 16.11 С 1 800 м дымка ?/? +12.1 +11.9 99 +12 +12 1021.9 961.9
18 16.11 С 3 600 м туман ?/? +11.9 +11.7 99 +10 +10 1020.5 976.3 +12.3 4
21 16.11 С 2 800 м туман ?/? +11.6 +11.4 99 +10 +10 1020.0 1020.0
00 17.11 С 3 1200 м дымка 10/10 1000 м
[]
+11.6 +11.4 99 +10 +10 1021.3 977.1 0.7
03 17.11 С 2 600 м туман 10/10 300 м
[]
+12.0 +11.8 99 +11 +11 1021.8 961.7
06 17.11 С 3 5000 м дымка 10/10 300 м
[]
+12.3 +12.1 99 +11 +11 1019.3 975.2 +11.4 0.0
09 17.11 С 3 3700 м дымка 10/10 1000 м
[]
+12.2 +12.0 99 +10 +10 1018.9 1019.0
12 17.11 С 2 700 м дымка 10/10 300 м
[]
+12.0 +11.8 99 +11 +11 1020.1 975.9 6
15 17.11 С 4 900 м дымка ?/? +11.4 +11.2 99 +9 +9 1021.4 961.6
18 17.11 С 4 900 м дымка н/о +10.4 +10.2 99 +8 +8 1020.3 976.1 +12.5 6
21 17.11 С 4 500 м туман ?/? +10.2 +10.0 99 +7 +7 1019.0 1019.0
00 18.11 С 5 2000 м в посл. час туман 10/10 300 м
[]
+8.6 +8.5 99 +5 +5 1023.4 978.9 2
03 18.11 С 5 2200 м дымка 10/10 300 м
[]
+8.0 +7.9 99 +4 +4 1025.1 1025.0
06 18.11 С 5 12 км 10/10 300 м
[]
+8.0 +7.9 99 +4 +4 1023.6 1039.4 +7.9 4
09 18.11 С 4 9000 м 10/10 300 м
[]
+7.7 +7.6 99 +4 +4 1024.4 1024.0
12 18.11 С 4 4300 м дымка 10/10 300 м
[]
+7.5 +7.4 99 +4 +4 1025.6 980.6 0.1
15 18.11 С 5 8000 м ?/? +7.3 +7.2 99 +3 +3 1027.1 966.5
18 18.11 С 5 30 км ?/? +7.2 +7.1 99 +3 +3 1026.6 981.5 +10.5
21 18.11 С 4 30 км ?/? +6.9 +6.7 99 +3 +3 1025.1 1025.0
00 19.11 С 3 1900 м дымка 10/10 300 м
[]
+6.6 +6.5 99 +3 +3 1026.4 981.2 0.0
03 19.11 С 1 30 км 10/10 1000 м
[]
+8.6 +8.5 99 +8 +8 1026.2 965.2
06 19.11 С 3 30 км 10/10 1000 м
[]
+9.4 +7.3 87 +7 +7 1023.5 978.6 +6.4 0.0
09 19.11 С 3 30 км 10/10 1000 м
[]
+9.2 +8.0 92 +7 +7 1022.8 1023.0
12 19.11 штиль 0 30 км 10/10 1000 м
[]
+9.0 +8.5 97 +8 +8 1023.3 978.4 0.1
15 19.11 С 1 1900 м дымка ?/? +8.6 +8.5 99 +8 +8 1023.3 1023.0

 

Местоположение метеостанции Chenzhou (Китай): широта 25.80 долгота 113.03 высота над уровнем моря 185 м.

В архиве по умолчанию представлена погода в Chenzhou за последнюю неделю. Архивные данные за месяц целиком и за предыдущие месяцы, начиная с января 2011 года, Вы можете получить, выбрав интересующий диапазон дат из раскрывающегося списка и нажав кнопку "Ввод!".


*Определитесь, кто Вы:
робот инопланетянин человек

Внимание! Время в таблицах - всемирное. Для получения местного времени необходимо прибавить поправку, которая в Chenzhou равна 8 ч.

Смотрите также архив погоды в соседних городах и на ближайших метеорологических станциях:

Погода в Shaoguan (Китай) (124 км)
Погода в Lian Xian (Китай) (131 км)
Погода в Lingling (Китай) (150 км)
Погода в Nanyue (Китай) (170 км)
Погода в Ganzhou (Китай) (197 км)
Погода в Lianping (Китай) (216 км)
Погода в Fogang (Китай) (221 км)
Погода в Shaoyang (Китай) (223 км)
Погода в Jian (Китай) (242 км)
Погода в Yichun (Китай) (260 км)

Пояснения к столбцам:

Ветер - указаны скорость ветра в м/с - средняя за 10 мин, порывы в срок и между сроками (в фигурных скобках) и направление, откуда дует ветер: С - северный, СВ - северо-восточный, В - восточный, ЮВ - юго-восточный, Ю - южный, ЮЗ - юго-западный, З - западный, СЗ - северо-западный.
Видимость - горизонтальная дальность видимости в метрах или километрах. При видимости от 1 до 10 км при отсутствии осадков обычно наблюдается дымка, при ухудшении видимости до 1 км и менее - туман. В сухую погоду видимость может ухудшаться дымом, пылью или мглою.
Явления - указаны атмосферные явления, наблюдавшиеся в срок или в последний час перед сроком; фигурными скобками обозначены явления, наблюдавшиеся между сроками (за 1-3 часа до срока); квадратными скобками обозначены град или гололедные отложения с указанием их диаметра в мм.
Облачность - указаны через наклонную черту общая и нижняя облачность в баллах и высота нижней границы облаков в метрах; квадратными скобками обозначены формы облаков: Ci - перистые, Cs - перисто-слоистые, Cc - перисто-кучевые, Ac - высококучевые, As - высокослоистые, Sc - слоисто-кучевые, Ns - слоисто-дождевые, Cu - кучевые, Cb - кучево-дождевые. Подробнее классификацию облаков см. в Атласе облаков (PDF).
T - Температура воздуха - температура, измеренная на высоте 2 м над землей.
Td - Температура точки росы - температура, при понижении до которой содержащийся в воздухе водяной пар достигнет насыщения.
f - Относительная влажность воздуха - влажноcть воздуха, измеренная на высоте 2 м над землей.
Te - Эффективная температура - температура, которую ощущает одетый по сезону человек в тени. Характеристика душности погоды. При расчете учитывается влияние влажности воздуха и скорости ветра на теплоощущения человека.
Tes - Эффективная температура на солнце - температура, которую ощущает человек, с поправкой на солнечный нагрев. Характеристика знойности погоды. Зависит от высоты солнца над горизонтом, облачности и скорости ветра. Ночью, в пасмурную погоду, а также при ветре 12 м/с и более поправка равна нулю.
P - Атмосферное давление - приведенное к уровню моря атмосферное давление.
Po - Атмосферное давление - измеренное на уровне метеостанции атмосферное давление.
Tmin - Минимальная температура - минимум температуры воздуха на высоте 2 м над землей.
Tmax - Максимальная температура - максимум температуры воздуха на высоте 2 м над землей.
R - Количество осадков - Количество выпавших осадков за период времени, мм. При наведении курсора мыши на число - период времени, за который выпало указанное количество осадков.
R24 - Количество осадков - Количество выпавших осадков за 24 часа, мм.
S - Снежный покров - Высота снежного покрова, см. При наведении курсора мыши на число - состояние снежного покрова и степень покрытия местности в баллах.